{"data":{"norad_id":59575,"intl_designator":"2024-076M","name":"STARLINK-31510","alt_names":[],"object_type":"PAYLOAD","status":"ACTIVE","operator":null,"country":"US","launch_date":"2024-04-23","launch_site_code":"AFETR","launch_vehicle":null,"mission":null,"orbit_class":"UNKNOWN","rcs_meters":null,"size_class":null,"mass_kg":null,"dimensions":null,"purposes":["comms"],"wikipedia_slug":null,"has_3d_model":false,"image_url":null,"decayed_at":null,"tle_current":{"epoch":"2026-05-25T03:20:38.066208Z","epoch_age_seconds":59689,"freshness":"FRESH","line1":"1 59575U 24076M   26145.13932947 -.00003554  00000+0 -11959-3 0  9992","line2":"2 59575  43.0036 293.8941 0002936 284.5188  75.5338 15.27597726118238","mean_motion":15.27597726,"eccentricity":0.0002936,"inclination_deg":43.0036,"raan_deg":293.8941,"arg_perigee_deg":284.5188,"mean_anomaly_deg":75.5338,"bstar":-0.00011959,"rev_number":11823,"period_min":94.265654857357,"perigee_km":480.98158987778,"apogee_km":485.01044718626,"semimajor_km":6861.133018532,"source":"CELESTRAK","updated_at":"2026-05-25T13:38:18.986809Z"}}}